Location: Cahas Mountain Overlook
(37.0833°N, 80.1000°W)
Time: 14:16:43
(UTC-05:00)

S-56A Canister/Altair - Pass Details

Date: 01 December 2023
Orbit: 639 x 2488 km, 38.9° (Epoch: 03 March)

Event Time Altitude Azimuth Distance (km) Brightness Sun altitude
Rises 14:32:35 0° 266° (W) 2,928 11.1 22.1°
Reaches altitude 10° 14:34:46 10° 268° (W) 2,041 10.4 21.8°
Maximum altitude 14:39:17 75° 355° (N) 741 7.7 21.3°
Drops below altitude 10° 14:44:58 10° 81° (E) 2,546 9.8 20.6°
Sets 14:47:59 0° 83° (E) 3,730 10.6 20.2°
